Location: Appletree Creek
(38.7363°N, 122.6833°W)
Time: 09:33:21
(UTC+00:00)

BREEZE-M DEB (TANK) - Pass Details

Date: 18 September 2020
Orbit: 424 x 13860 km, 45.9° (Epoch: 20 October)

Event Time Altitude Azimuth Distance (km) Brightness Sun altitude
Exits shadow 12:06:36 35° 251° (WSW) 1,918 4.4 -21.5°
Maximum altitude 12:10:08 83° 336° (NNW) 1,817 4.8 -20.9°
Drops below altitude 10° 12:37:45 10° 67° (ENE) 10,422 10.1 -15.8°
Sets 12:54:20 0° 71° (ENE) 14,261 11.5 -12.6°
